Weather History for Jackson, KY

Change the Weather History Date:

Wednesday, November 30, 2011

  Actual Average Record
Temperature  
Mean Temperature 35 °F 43 °F  
Max Temperature 39 °F 51 °F 73 °F (1998)
Min Temperature 30 °F 35 °F 24 °F (1989)
Degree Days  
Heating Degree Days 30 22  
Month to date heating degree days 383 504  
Since 1 July heating degree days 717 800  
Cooling Degree Days 0 0  
Month to date cooling degree days 3 4  
Year to date cooling degree days 1255 1154  
Moisture  
Dew Point 29 °F    
Average Humidity 80    
Maximum Humidity 96    
Minimum Humidity 64    
Precipitation  
Precipitation 0.05 in 0.14 in 2.50 in (2010)
Month to date precipitation 5.48 3.96  
Year to date precipitation 55.83 44.16  
Snow  
Snow T in 0.00 in - ()
Month to date snowfall T 0.5  
Since 1 July snowfall T 0.6  
Since 1 September snowfall T 0.6  
Snow Depth 0.00 in    
Sea Level Pressure  
Sea Level Pressure 30.02 in    
Wind  
Wind Speed 4 mph (West)    
Max Wind Speed 13 mph    
Max Gust Speed 23 mph    
Visibility 9 miles    
Events Rain , Snow    
T = Trace of Precipitation, MM = Missing Value Source: NWS Daily Summary

Daily Weather History Graph

Daily Weather History Graph

Search for Another Location

Airport:

Trip Planner

Search our weather history database for the weather conditions in past years. The results will help you decide how hot, cold, wet, or windy it might be!

Date:

Astronomy

Nov. 30, 2011 Rise Set
Actual Time 7:28 AM EST 5:15 PM EST
Civil Twilight 6:59 AM EST 5:44 PM EST
Nautical Twilight 6:27 AM EST 6:16 PM EST
Astronomical Twilight 5:55 AM EST 6:48 PM EST
Moon 11:48 AM EST (11/30) 11:07 PM EST (11/30)
Length of Visible Light 10h 44m
Length of Day
9h 47m
Waxing Crescent, 33% of the Moon is Illuminated
Nov 30
Waxing Crescent
Dec 2
First Quarter
Dec 10
Full
Dec 17
Last Quarter
Dec 24
New

Hourly Weather History & Observations

Time (EST) Temp. Windchill Dew Point Humidity Pressure Visibility Wind Dir Wind Speed Gust Speed Precip Events Conditions
12:26 AM 33.8 °F 28.6 °F 30.2 °F 87% 29.81 in 5.0 mi Variable 5.8 mph 19.6 mph 0.01 in Snow Light Snow
12:53 AM 34.0 °F 31.0 °F 30.9 °F 89% 29.83 in 8.0 mi Variable 3.5 mph 19.6 mph 0.01 in   Overcast
1:35 AM 33.8 °F 27.0 °F 30.2 °F 87% 29.83 in 4.0 mi WSW 8.1 mph - 0.01 in Snow Light Snow
1:53 AM 33.1 °F 27.7 °F 30.9 °F 92% 29.86 in 5.0 mi WSW 5.8 mph 17.3 mph 0.02 in Snow Light Snow
2:00 AM 33.8 °F 25.3 °F 30.2 °F 87% 29.84 in 8.0 mi WSW 11.5 mph 16.1 mph 0.00 in Snow Light Snow
2:18 AM 33.8 °F 27.0 °F 30.2 °F 87% 29.85 in 10.0 mi WSW 8.1 mph - 0.00 in   Overcast
2:53 AM 34.0 °F 28.0 °F 30.9 °F 89% 29.89 in 8.0 mi Variable 6.9 mph - 0.00 in Snow Light Snow
3:53 AM 34.0 °F 28.8 °F 30.9 °F 89% 29.91 in 10.0 mi Variable 5.8 mph - 0.00 in   Overcast
4:14 AM 33.8 °F - 30.2 °F 87% 29.89 in 8.0 mi Calm Calm - 0.00 in   Overcast
4:27 AM 33.8 °F 30.8 °F 30.2 °F 87% 29.90 in 10.0 mi SW 3.5 mph - 0.00 in   Overcast
4:53 AM 34.0 °F 29.8 °F 30.9 °F 89% 29.93 in 8.0 mi Variable 4.6 mph - 0.00 in   Overcast
5:53 AM 34.0 °F 29.8 °F 30.9 °F 89% 29.95 in 9.0 mi Variable 4.6 mph - 0.01 in   Overcast
6:26 AM 33.8 °F 27.7 °F 30.2 °F 87% 29.94 in 9.0 mi West 6.9 mph - 0.00 in   Overcast
6:53 AM 33.8 °F 28.6 °F 32.0 °F 93% 29.95 in 9.0 mi Variable 5.8 mph - N/A Rain Light Rain
7:12 AM 33.8 °F 27.7 °F 32.0 °F 93% 29.96 in 8.0 mi WSW 6.9 mph - 0.00 in Rain Light Rain
7:53 AM 34.0 °F 29.8 °F 32.0 °F 92% 30.00 in 8.0 mi Variable 4.6 mph 18.4 mph 0.01 in Rain Light Rain
8:53 AM 34.0 °F 26.6 °F 32.0 °F 92% 30.03 in 9.0 mi West 9.2 mph - 0.00 in   Overcast
9:51 AM 35.6 °F 29.9 °F 30.2 °F 81% 30.04 in 10.0 mi Variable 6.9 mph 17.3 mph 0.00 in   Overcast
9:53 AM 35.1 °F 28.6 °F 30.9 °F 85% 30.07 in 10.0 mi West 8.1 mph 17.3 mph 0.00 in   Overcast
10:41 AM 35.6 °F 29.9 °F 30.2 °F 81% 30.07 in 10.0 mi WNW 6.9 mph - N/A   Overcast
10:51 AM 35.6 °F 30.7 °F 30.2 °F 81% 30.07 in 10.0 mi WNW 5.8 mph - N/A   Overcast
10:53 AM 35.6 °F 30.7 °F 30.2 °F 81% 30.07 in 10.0 mi WNW 5.8 mph - N/A   Overcast
11:53 AM 35.1 °F 31.0 °F 28.9 °F 78% 30.10 in 10.0 mi West 4.6 mph - 0.00 in   Overcast
12:53 PM 37.0 °F 31.0 °F 30.0 °F 76% 30.09 in 10.0 mi West 8.1 mph - N/A   Overcast
1:53 PM 37.0 °F 31.6 °F 28.0 °F 70% 30.10 in 10.0 mi Variable 6.9 mph - N/A   Overcast
2:53 PM 37.0 °F 32.4 °F 27.0 °F 67% 30.10 in 10.0 mi Variable 5.8 mph - N/A   Overcast
3:53 PM 37.0 °F 33.3 °F 27.0 °F 67% 30.12 in 10.0 mi Variable 4.6 mph - N/A   Overcast
4:53 PM 36.0 °F 33.3 °F 26.1 °F 67% 30.15 in 10.0 mi NNW 3.5 mph - N/A   Mostly Cloudy
5:53 PM 34.0 °F - 25.0 °F 70% 30.16 in 10.0 mi Calm Calm - N/A   Partly Cloudy
6:53 PM 33.1 °F 30.0 °F 25.0 °F 72% 30.19 in 10.0 mi NW 3.5 mph - N/A   Clear
7:53 PM 33.1 °F - 25.0 °F 72% 30.21 in 10.0 mi Calm Calm - N/A   Clear
8:53 PM 33.1 °F - 24.1 °F 70% 30.22 in 10.0 mi Calm Calm - N/A   Clear
9:53 PM 32.0 °F - 24.1 °F 73% 30.23 in 10.0 mi Calm Calm - N/A   Clear
10:53 PM 30.9 °F - 24.1 °F 76% 30.25 in 10.0 mi Calm Calm - N/A   Clear
11:53 PM 30.0 °F 26.5 °F 24.1 °F 79% 30.26 in 10.0 mi SSE 3.5 mph - N/A   Clear